Regional Weather Roundup
Issued by NWS

Home | Current Version | Previous Version | Graphics & Text | Print | Product List | Glossary On
Versions: 1 2 3 4 5 6 7 8 9 10 11 12 13 14 15 16 17 18 19 20 21 22 23 24 25 26 27 28 29 30 31 32 33 34 35 36 37 38 39 40 41 42 43 44 45 46 47 48 49 50
140
ASUS43 KLOT 171312
RWRIL

ILLINOIS REGIONAL WEATHER ROUNDUP
NATIONAL WEATHER SERVICE CHICAGO/ROMEOVILLE IL
700 AM CST TUE JAN 17 2017

NOTE: "FAIR" INDICATES FEW OR NO CLOUDS BELOW 12,000 FEET WITH NO
SIGNIFICANT WEATHER AND/OR OBSTRUCTIONS TO VISIBILITY.

* THESE STATIONS ARE NOT UNDER NWS QUALITY CONTROL. THEY ALSO MAY NOT
  REPORT WEATHER SUCH AS PRECIPITATION OR FOG.

ILZ001-002-007-009-015-016-024-171400-
NORTHWEST ILLINOIS

CITY           SKY/WX    TMP DP  RH WIND       PRES   REMARKS
MOLINE         CLOUDY    35  33  92 SW9       29.87R FOG     WCI  28
STERLING*      FOG       34  34 100 SW7       29.86R VSB 1/4 WCI  28
SAVANNA*       FOG       34  34 100 W3        29.85R VSB 1/2
$$

ILZ003-004-008-010-011-017-018-171400-
NORTH CENTRAL ILLINOIS

CITY           SKY/WX    TMP DP  RH WIND       PRES   REMARKS
ROCKFORD       FOG       35  34  96 NW6       29.82F VSB 1/2 WCI  30
FREEPORT*      FOG       33  33  99 NW5       29.83S VSB 1/2 WCI  29
ROCHELLE*      FOG       34  34 100 W5        29.83R VSB 1/2 WCI  30
DE KALB*       FOG       34  34  99 W12       29.82R VSB 1/2 WCI  26
$$

ILZ005-006-012>014-019>023-171400-
NORTHEAST ILLINOIS

CITY           SKY/WX    TMP DP  RH WIND       PRES   REMARKS
CHICAGO-OHARE  FOG       37  37 100 W6        29.78R VSB 1   WCI  32
CHICAGO-MIDWAY CLOUDY    37  37 100 W9        29.79R FOG     WCI  30
AURORA         CLOUDY    36  34  92 W9        29.82R WCI  29
LANSING*       CLOUDY    39  39 100 W14G21    29.80R WCI  31
JOLIET*        FOG       37  37 100 SW7       29.83R VSB 1   WCI  32
WAUKEGAN       FOG       36  36 100 NW6       29.77R VSB 1/4 WCI  31
DUPAGE AIRPORT CLOUDY    36  34  92 W7        29.79R WCI  30
KANKAKEE*      CLOUDY    42  41  98 W9        29.84R FOG
WHEELING       CLOUDY    37  36  96 NW9       29.79R WCI  30
MORRIS*        CLOUDY    36  36  98 W13       29.83R FOG     WCI  28
ROMEOVILLE*    FOG       35  35 100 W12       29.81R VSB 3/4 WCI  27
NORTHERLY ISL    N/A     39  38  96 W12         N/A  WCI  32
$$

LMZ740>746-171400-
SOUTHERN LAKE MICHIGAN

STATION/POSITION SKY/WX   TEMP    WIND        PRES    VSBY  WAVE
                          AIR SEA DIR/SP/G                  HT/PER
                          (F)     (DEG/KT/KT) (MB)    (MI)  (FT/S)
HARRISON CRIB              39     280/ 16/ 18   N/A
BURNHAM HARBOR             38     280/ 12/ 14   N/A
CALUMET HARBOR             41     240/  9/ 13 1007.8R
BURNS HARBOR               41     250/ 14/ 16 1008.8R
$$

ILZ025>027-034>036-040-047-049-050-058-095>099-171400-
WEST-CENTRAL ILLINOIS

CITY           SKY/WX    TMP DP  RH WIND       PRES   REMARKS
QUINCY         CLOUDY    39  38  96 W15       29.94R FOG     WCI  31
GALESBURG*     DRIZZLE   36  36 100 W12       29.90R WCI  27
MACOMB*        CLOUDY    36  36 100 NW14G20   29.92S WCI  27
JACKSONVILLE*  CLOUDY    40  39  96 SW10G16   29.93S FOG
PITTSFIELD*    CLOUDY    41  40  95 SW10      29.95R
$$

ILZ028>032-037-038-041>044-048-051>054-059>061-171400-
CENTRAL ILLINOIS

CITY           SKY/WX    TMP DP  RH WIND       PRES   REMARKS
PONTIAC        CLOUDY    42  42 100 W13       29.85F FOG
BLOOMINGTON    FOG       41  41 100 W15       29.88R VSB 3/4
DECATUR        CLOUDY    43  42  97 W10       29.91R
PEORIA         CLOUDY    39  39 100 W10       29.89R WCI  32
LACON*         CLOUDY    38  38 100 SW10      29.87R WCI  31
LINCOLN*       CLOUDY    43  43  99 SW5       29.91R
SPRINGFIELD    CLOUDY    43  40  89 W15       29.93R
TAYLORVILLE    CLOUDY    42  40  91 W14G20    29.94R
$$

ILZ033-039-045-046-055>057-062-063-171400-
EAST-CENTRAL ILLINOIS

CITY           SKY/WX    TMP DP  RH WIND       PRES   REMARKS
CHAMPAIGN      CLOUDY    44  41  89 W17       29.90R FOG
RANTOUL*       CLOUDY    45  44  96 W12G21    29.88R
MATTOON        CLOUDY    45  40  82 W9        29.91R
PARIS*         CLOUDY    46  43  90 W16G23    29.92R
$$

ILZ079-100>102-171400-
SOUTHWEST ILLINOIS

CITY           SKY/WX    TMP DP  RH WIND       PRES   REMARKS
ALTON          CLOUDY    41  37  87 W12       29.98R
BELLEVILLE     CLOUDY    43  41  93 W10       29.98R
CAHOKIA*       CLOUDY    44  37  76 W7        29.98S
SPARTA*        CLOUDY    43  38  84 W12G23    30.01R
$$

ILZ064>066-069>071-074>076-080>082-084>086-088>090-092>094-171400-
SOUTH-CENTRAL ILLINOIS

CITY           SKY/WX    TMP DP  RH WIND       PRES   REMARKS
CARBONDALE     NOT AVBL
CAIRO*         PTCLDY    46  41  82 SW9       30.01R
EFFINGHAM*     CLOUDY    46  44  92 W13       29.96R
MARION         CLOUDY    48  46  93 W12       30.00R
MT. VERNON     CLOUDY    47  42  83 W8        29.97R
CENTRALIA*     CLOUDY    45  41  86 W12       29.97R
SALEM*         CLOUDY    46  41  82 W13G20    29.96R
METROPOLIS*    PTCLDY    51  46  82 SW7       29.99S
$$

ILZ067-068-072-073-078-083-087-091-171400-
SOUTHEAST ILLINOIS

CITY           SKY/WX    TMP DP  RH WIND       PRES   REMARKS
LAWRENCEVILLE  CLOUDY    50  46  86 W8        29.94R
FLORA*         CLOUDY    48  43  81 NW15      29.96R
FAIRFIELD*     PTCLDY    46  42  85 CALM      29.96R
HARRISBURG*    CLOUDY    49  47  93 W7        29.98R
ROBINSON*      CLOUDY    49  46  89 W9        29.94R
CARMI*         CLOUDY    49  46  90 W13       29.96R
$$

ABBREVIATIONS USED IN REMARKS
   TC - TEMPERATURE IN CELSIUS
  WCI - WIND CHILL INDEX
   HX - HEAT INDEX
  VSB - VISIBILITY
$$





USA.gov is the U.S. government's official web portal to all federal, state and local government web resources and services.